When you browse on this site, cookies collect data to enhance your experience and personalize the content and advertising you see.
Visit our Privacy Policy to learn more. By continuing to use the site, you agree to this use of cookies and data.
  • In United Kingdom
  • List of Countries
  • For 7 days
  • Water Temperature
  • Weather Map
  • Weather Widgets
  • user-avatar
    Login

    Hourly Weather Dobrich

    Today, 24 January, Friday

    Time Temperature Precipitation Wind Pressure Humidity
    00:00 -2°C° 0 mm 3 mps 750 mmHg 66%
    01:00 -3°C° 0 mm 2 mps 750 mmHg 68%
    02:00 -3°C° 0 mm 2 mps 750 mmHg 69%
    03:00 -3°C° 0 mm 2 mps 750 mmHg 71%
    04:00 -3°C° 0 mm 2 mps 750 mmHg 72%
    05:00 -1°C° 0 mm 1 mps 750 mmHg 74%
    06:00 -1°C° 0 mm 1 mps 750 mmHg 74%
    07:00 -3°C° 0 mm 2 mps 750 mmHg 74%
    08:00 -3°C° 0 mm 2 mps 750 mmHg 74%
    09:00 -1°C° 0 mm 2 mps 750 mmHg 65%
    10:00 +1°C° 0 mm 3 mps 750 mmHg 56%
    11:00 +3°C° 0 mm 3 mps 750 mmHg 47%
    12:00 +3°C° 0 mm 4 mps 750 mmHg 45%
    13:00 +4°C° 0 mm 4 mps 749 mmHg 43%
    14:00 +5°C° 0 mm 4 mps 749 mmHg 41%
    15:00 +4°C° 0 mm 4 mps 748 mmHg 45%
    16:00 +3°C° 0 mm 3 mps 748 mmHg 49%
    17:00 +2°C° 0 mm 3 mps 747 mmHg 53%
    18:00 +1°C° 0 mm 3 mps 747 mmHg 56%
    19:00 +1°C° 0 mm 3 mps 747 mmHg 59%
    20:00 0°C° 0 mm 3 mps 747 mmHg 62%
    21:00 0°C° 0 mm 3 mps 746 mmHg 64%
    22:00 0°C° 0 mm 3 mps 746 mmHg 66%
    23:00 -1°C° 0 mm 3 mps 746 mmHg 68%

    Tomorrow, 25 January, Saturday

    Time Temperature Precipitation Wind Pressure Humidity
    00:00 -1°C° 0 mm 3 mps 745 mmHg 69%
    01:00 -1°C° 0 mm 3 mps 745 mmHg 69%
    02:00 -1°C° 0 mm 3 mps 744 mmHg 70%
    03:00 -1°C° 0 mm 3 mps 744 mmHg 69%
    04:00 -1°C° 0 mm 3 mps 744 mmHg 69%
    05:00 -1°C° 0 mm 3 mps 743 mmHg 68%
    06:00 -1°C° 0 mm 3 mps 743 mmHg 67%
    07:00 -1°C° 0 mm 3 mps 743 mmHg 66%
    08:00 -1°C° 0 mm 3 mps 743 mmHg 65%
    09:00 +1°C° 0 mm 3 mps 743 mmHg 57%
    10:00 +4°C° 0 mm 4 mps 744 mmHg 48%
    11:00 +6°C° 0 mm 4 mps 744 mmHg 39%
    12:00 +7°C° 0 mm 4 mps 744 mmHg 37%
    13:00 +8°C° 0 mm 4 mps 743 mmHg 36%
    14:00 +10°C° 0 mm 4 mps 743 mmHg 34%
    15:00 +9°C° 0 mm 3 mps 743 mmHg 39%
    16:00 +7°C° 0 mm 2 mps 743 mmHg 43%
    17:00 +6°C° 0 mm 2 mps 743 mmHg 48%
    18:00 +5°C° 0 mm 2 mps 743 mmHg 51%
    19:00 +4°C° 0 mm 2 mps 743 mmHg 53%
    20:00 +5°C° 0 mm 1 mps 743 mmHg 55%
    21:00 +3°C° 0 mm 2 mps 743 mmHg 57%
    22:00 +3°C° 0 mm 2 mps 743 mmHg 58%
    23:00 +3°C° 0 mm 2 mps 743 mmHg 59%

    Day after tomorrow, 26 January, Sunday

    Time Temperature Precipitation Wind Pressure Humidity
    00:00 +3°C° 0 mm 2 mps 743 mmHg 59%
    01:00 +3°C° 0 mm 2 mps 743 mmHg 60%
    02:00 +4°C° 0 mm 1 mps 743 mmHg 60%
    03:00 +3°C° 0 mm 1 mps 743 mmHg 61%
    04:00 +3°C° 0 mm 1 mps 743 mmHg 62%
    05:00 +3°C° 0 mm 1 mps 743 mmHg 64%
    06:00 +3°C° 0 mm 1 mps 743 mmHg 65%
    07:00 +3°C° 0 mm 1 mps 744 mmHg 67%
    08:00 +3°C° 0 mm 1 mps 744 mmHg 69%
    09:00 +4°C° 0 mm 1 mps 744 mmHg 65%
    10:00 +6°C° 0 mm 1 mps 745 mmHg 61%
    11:00 +7°C° 0 mm 1 mps 745 mmHg 58%
    12:00 +8°C° 0 mm 1 mps 745 mmHg 55%
    13:00 +9°C° 0 mm 1 mps 745 mmHg 53%
    14:00 +10°C° 0 mm 1 mps 744 mmHg 50%
    15:00 +9°C° 0 mm 1 mps 744 mmHg 54%
    16:00 +8°C° 0 mm 1 mps 744 mmHg 58%
    17:00 +7°C° 0 mm 1 mps 744 mmHg 61%
    18:00 +5°C° 0 mm 2 mps 744 mmHg 65%
    19:00 +4°C° 0 mm 2 mps 745 mmHg 68%
    20:00 +3°C° 0 mm 2 mps 745 mmHg 72%
    21:00 +3°C° 0 mm 2 mps 745 mmHg 72%
    22:00 +3°C° 0 mm 2 mps 745 mmHg 73%
    23:00 +3°C° 0 mm 2 mps 744 mmHg 73%

    27 January, Monday

    Time Temperature Precipitation Wind Pressure Humidity
    00:00 +3°C° 0 mm 2 mps 744 mmHg 73%
    01:00 +3°C° 0 mm 2 mps 744 mmHg 74%
    02:00 +3°C° 0 mm 2 mps 744 mmHg 74%
    03:00 +3°C° 0 mm 2 mps 743 mmHg 75%
    04:00 +3°C° 0 mm 2 mps 743 mmHg 75%
    05:00 +3°C° 0 mm 2 mps 743 mmHg 76%
    06:00 +3°C° 0 mm 2 mps 743 mmHg 77%
    07:00 +3°C° 0 mm 2 mps 743 mmHg 78%
    08:00 +2°C° 0 mm 3 mps 742 mmHg 79%
    09:00 +4°C° 0 mm 3 mps 742 mmHg 76%
    10:00 +5°C° 0 mm 3 mps 742 mmHg 72%
    11:00 +7°C° 0 mm 3 mps 742 mmHg 69%
    12:00 +7°C° 0.1 mm 3 mps 742 mmHg 74%
    13:00 +7°C° 0.1 mm 3 mps 741 mmHg 79%
    14:00 +7°C° 0.1 mm 4 mps 741 mmHg 84%
    15:00 +7°C° 0.5 mm 3 mps 740 mmHg 89%
    16:00 +7°C° 0.5 mm 3 mps 740 mmHg 93%
    17:00 +6°C° 0.5 mm 2 mps 740 mmHg 97%
    18:00 +6°C° 1 mm 2 mps 740 mmHg 97%
    19:00 +5°C° 1 mm 3 mps 740 mmHg 97%
    20:00 +5°C° 1 mm 3 mps 740 mmHg 96%
    21:00 +5°C° 0.4 mm 3 mps 740 mmHg 91%
    22:00 +4°C° 0.4 mm 4 mps 740 mmHg 85%
    23:00 +4°C° 0.4 mm 4 mps 740 mmHg 80%

    28 January, Tuesday

    Time Temperature Precipitation Wind Pressure Humidity
    00:00 +3°C° 0 mm 5 mps 739 mmHg 80%
    01:00 +2°C° 0 mm 5 mps 739 mmHg 81%
    02:00 +2°C° 0 mm 6 mps 739 mmHg 81%
    03:00 +2°C° 0 mm 6 mps 739 mmHg 79%
    04:00 +2°C° 0 mm 6 mps 739 mmHg 78%
    05:00 +2°C° 0 mm 6 mps 739 mmHg 76%
    06:00 +2°C° 0 mm 5 mps 739 mmHg 78%
    07:00 +2°C° 0 mm 5 mps 740 mmHg 81%
    08:00 +2°C° 0 mm 5 mps 740 mmHg 83%
    09:00 +3°C° 0 mm 5 mps 740 mmHg 80%
    10:00 +5°C° 0 mm 5 mps 740 mmHg 77%
    11:00 +6°C° 0 mm 5 mps 740 mmHg 74%
    12:00 +7°C° 0 mm 5 mps 740 mmHg 70%
    13:00 +8°C° 0 mm 4 mps 740 mmHg 67%
    14:00 +10°C° 0 mm 4 mps 740 mmHg 63%
    15:00 +9°C° 0 mm 3 mps 740 mmHg 67%
    16:00 +8°C° 0 mm 2 mps 740 mmHg 70%
    17:00 +8°C° 0 mm 1 mps 740 mmHg 73%
    18:00 +8°C° 0 mm 1 mps 740 mmHg 76%
    19:00 +7°C° 0 mm 1 mps 740 mmHg 79%
    20:00 +6°C° 0 mm 1 mps 740 mmHg 82%
    21:00 +5°C° 0 mm 2 mps 740 mmHg 82%
    22:00 +5°C° 0 mm 2 mps 740 mmHg 82%
    23:00 +5°C° 0 mm 2 mps 740 mmHg 82%

    29 January, Wednesday

    Time Temperature Precipitation Wind Pressure Humidity
    00:00 +5°C° 0 mm 2 mps 740 mmHg 83%
    01:00 +4°C° 0 mm 2 mps 740 mmHg 84%
    02:00 +4°C° 0 mm 2 mps 740 mmHg 84%
    03:00 +4°C° 0 mm 2 mps 740 mmHg 83%
    04:00 +4°C° 0 mm 2 mps 740 mmHg 83%
    05:00 +4°C° 0 mm 2 mps 740 mmHg 82%
    06:00 +4°C° 0 mm 2 mps 740 mmHg 80%
    07:00 +4°C° 0 mm 2 mps 740 mmHg 78%
    08:00 +4°C° 0 mm 2 mps 740 mmHg 77%
    09:00 +6°C° 0 mm 2 mps 740 mmHg 70%
    10:00 +8°C° 0 mm 2 mps 741 mmHg 63%
    11:00 +10°C° 0 mm 3 mps 741 mmHg 56%
    12:00 +11°C° 0 mm 3 mps 740 mmHg 54%
    13:00 +11°C° 0 mm 3 mps 739 mmHg 52%
    14:00 +12°C° 0 mm 3 mps 739 mmHg 50%
    15:00 +11°C° 0 mm 3 mps 739 mmHg 57%
    16:00 +10°C° 0 mm 3 mps 738 mmHg 65%
    17:00 +9°C° 0 mm 3 mps 738 mmHg 73%
    18:00 +7°C° 0 mm 4 mps 738 mmHg 77%
    19:00 +7°C° 0 mm 4 mps 737 mmHg 81%
    20:00 +6°C° 0 mm 4 mps 737 mmHg 85%
    21:00 +6°C° 0 mm 4 mps 737 mmHg 86%
    22:00 +6°C° 0 mm 4 mps 737 mmHg 88%
    23:00 +6°C° 0 mm 4 mps 737 mmHg 90%
    Show more